Location: ????????
(55.6189°N, 38.3031°E)
Time: 13:59:31
(UTC+00:00)

SL-16 R/B - Pass Details

Date: 22 February 2020
Orbit: 843 x 847 km, 71.0° (Epoch: 08 April)

Event Time Altitude Azimuth Distance (km) Brightness Sun altitude
Exits shadow 00:11:25 28° 92° (E) 1,558 3.8 -36.1°
Drops below altitude 10° 00:15:26 10° 49° (NE) 2,476 5.4 -35.7°
Sets 00:18:11 0° 38° (NE) 3,415 6.3 -35.4°
